DELTA 1 DEB, 21373

Orbit data source: Space-Track

DELTA 1 DEB, 21373 is space debris in SSO originally from a launch on Thu, 12 Jun 1975 UTC launched from the Air Force Western Test Range (AFWTR). Debris objects in space refer to the collection of defunct objects orbiting the Earth. Examples of debris include non-operational satellites, rocket bodies, and fragments generated from explosions, collisions, or faulty payload assembly.

Loading next visibility...
Identifier
21373, 1975-052CT
Orbit
SSO
Country
Flag of USUS
Related business
Manufacturer
Unknown
Mission
Spacecraft
Bus & Motor
Unknown
Mass
Unknown
Launch date (UTC)
1975-06-12 (50 years ago)
Launch vehicle
Unknown
Launch site
Air Force Western Test Range (AFWTR)
Object type
Payload
Rocket body
Debris
Shape & HBR
Unknown shape, 0.1 m
Radar Cross Section
Small (<0.1 m²)

Expand to show TLE details & history
Last TLE update: 9 hours ago

TLE from 9 hours ago
0 DELTA 1 DEB
1 21373U 75052CT  25300.21979829  .00000145  00000-0  38199-3 0  9995
2 21373  99.9536 197.3048 0074002 222.2570 290.4280 13.32620418673285
Epoch: 2025-10-27T05:16Z
TLE epoch observation values (Epoch: 2025-10-27T05:16:30.572Z)
Latitude
27.69335°
Longitude
-92.38948°
Altitude
1,121.102 km
Speed
7.304 km/s
True Right ascension
01h 30m 15s
True Declination
27° 33' 32"
Sunlit
Object was in full shadow at epoch
Visualization orbit readout
Latitude
Unknown
Longitude
Unknown
Altitude
Unknown
Speed
Unknown
Apparent Right ascension
Unknown
Apparent Declination
Unknown
Sunlit
N/A
Visualization observer readout
Local Sidereal Time
10:06:39
Azimuth
Unknown
Elevation
Unknown
Doppler factor
Unknown
Orbital elements
Apogee altitude
1,189.826 km
Perigee altitude
1,078.64 km
Semi-major axis
7,512.37 km
Eccentricity
0.0074
Inclination
99.9536°
RAAN
197.3048°
Arg. of periapsis
222.257°
True anomaly
289.63078°
Mean anomaly
290.428°
Eccentric anomaly
290.02965°
Mean motion
3.33333 °/min
Orbital period
108 mins
BSTAR
0.00038199
Loading maneuver chart data...
Computing Atmospheric mass density...
Loading historical data...
Loading historical data...
Loading historical data...
Loading historical data...
Loading historical data...
Loading historical data...
Loading historical data...

Documentation

Showing up to 5 results
|